Lamar, CO

10:51 PM MDT on April 30, 2017 (GMT -0600)
Lamar Municipal

Weather History for KLAA - November, 2013

Change the Weather History Date:

Tuesday, November 26, 2013

  Actual Average Record
Temperature  
Mean Temperature 37 °F 36 °F  
Max Temperature 50 °F 52 °F 83 °F (1990)
Min Temperature 24 °F 20 °F -6 °F (1952)
Degree Days  
Heating Degree Days 28 29  
Month to date heating degree days 577 626  
Since 1 July heating degree days 989 1093  
Cooling Degree Days 0 0  
Month to date cooling degree days 0 0  
Year to date cooling degree days 1568 1121  
Moisture  
Dew Point 24 °F    
Average Humidity 61    
Maximum Humidity 88    
Minimum Humidity 33    
Precipitation  
Precipitation 0.00 in 0.01 in 0.29 in (1987)
Month to date precipitation 0.26  
Year to date precipitation 10.32  
Sea Level Pressure  
Sea Level Pressure 30.37 in    
Wind  
Wind Speed 5 mph (North)    
Max Wind Speed 20 mph    
Max Gust Speed 27 mph    
Visibility 10 miles    
Events      
T = Trace of Precipitation, MM = Missing Value Source: NWS Daily Summary

Daily Weather History Graph

Daily Weather History Graph

Search for Another Location

Airport or City:

Trip Planner

Search our weather history database for the weather conditions in past years. The results will help you decide how hot, cold, wet, or windy it might be!

Date:

Astronomy

Nov. 26, 2013 Rise Set
Actual Time 6:43 AM MST 4:32 PM MST
Civil Twilight 6:14 AM MST 5:01 PM MST
Nautical Twilight 5:42 AM MST 5:33 PM MST
Astronomical Twilight 5:10 AM MST 6:05 PM MST
Moon No Moon Rise 12:34 PM MST (11/26)
Length of Visible Light 10h 46m
Length of Day
9h 49m
Last Quarter, 40% of the Moon is Illuminated
Nov 26
Last Quarter
Dec 2
New
Dec 9
First Quarter
Dec 17
Full
Dec 25
Last Quarter

Hourly Weather History & Observations

Time (MST) Temp. Windchill Dew Point Humidity Pressure Visibility Wind Dir Wind Speed Gust Speed Precip Events Conditions
12:53 AM 30.9 °F - 26.1 °F 82% 30.31 in 10.0 mi Calm Calm - N/A   Mostly Cloudy
1:53 AM 30.9 °F - 26.1 °F 82% 30.32 in 10.0 mi Calm Calm - N/A   Mostly Cloudy
2:53 AM 28.9 °F - 25.0 °F 85% 30.32 in 10.0 mi Calm Calm - N/A   Overcast
3:53 AM 28.9 °F 25.2 °F 25.0 °F 85% 30.33 in 10.0 mi NW 3.5 mph - N/A   Partly Cloudy
4:53 AM 28.0 °F 24.2 °F 25.0 °F 88% 30.35 in 10.0 mi SSW 3.5 mph - N/A   Mostly Cloudy
5:53 AM 24.1 °F 18.2 °F 21.0 °F 88% 30.38 in 10.0 mi SW 4.6 mph - N/A   Partly Cloudy
6:53 AM 28.0 °F - 24.1 °F 85% 30.40 in 10.0 mi Calm Calm - N/A   Overcast
7:53 AM 30.9 °F - 25.0 °F 79% 30.42 in 10.0 mi Calm Calm - N/A   Clear
8:53 AM 35.1 °F - 25.0 °F 67% 30.43 in 10.0 mi Calm Calm - N/A   Clear
9:53 AM 39.0 °F 36.8 °F 25.0 °F 57% 30.43 in 10.0 mi NW 3.5 mph - N/A   Clear
10:53 AM 42.1 °F 38.4 °F 28.0 °F 58% 30.40 in 10.0 mi West 5.8 mph - N/A   Clear
11:53 AM 45.0 °F 42.6 °F 28.9 °F 53% 30.37 in 10.0 mi West 4.6 mph - N/A   Clear
12:53 PM 48.9 °F - 24.1 °F 38% 30.33 in 10.0 mi North 11.5 mph - N/A   Clear
1:53 PM 50.0 °F - 24.1 °F 36% 30.31 in 10.0 mi NNE 16.1 mph - N/A   Clear
2:53 PM 50.0 °F - 23.0 °F 35% 30.31 in 10.0 mi North 15.0 mph - N/A   Clear
3:53 PM 48.0 °F - 24.1 °F 39% 30.32 in 10.0 mi NNE 8.1 mph - N/A   Clear
4:53 PM 39.9 °F 35.8 °F 24.1 °F 53% 30.36 in 10.0 mi ENE 5.8 mph - N/A   Clear
5:53 PM 34.0 °F 27.2 °F 25.0 °F 70% 30.40 in 10.0 mi ESE 8.1 mph - N/A   Clear
6:53 PM 30.9 °F 23.5 °F 24.1 °F 76% 30.40 in 10.0 mi SE 8.1 mph - N/A   Clear
7:53 PM 28.9 °F - 23.0 °F 78% 30.41 in 10.0 mi Calm Calm - N/A   Clear
8:53 PM 28.0 °F - 23.0 °F 81% 30.40 in 10.0 mi Calm Calm - N/A   Clear
9:53 PM 27.0 °F - 21.9 °F 81% 30.40 in 10.0 mi Calm Calm - N/A   Clear
10:53 PM 26.1 °F 20.5 °F 21.0 °F 81% 30.38 in 10.0 mi East 4.6 mph - N/A   Clear
11:53 PM 24.1 °F 17.0 °F 21.0 °F 88% 30.35 in 10.0 mi East 5.8 mph - N/A   Clear